[[{"header":{"parameterUnit":"m.s-1","parameterCategory":2,"la1":30.2991,"la2":30.254,"lo1":-89.0895,"lo2":-89.0444,"dy":0.0017,"dx":0.0017,"nx":28,"ny":28,"refTime":"2024-05-10T03:00:00:Z","depth":"0","parameterNumber":2,"parameterNumberName":"U-component_of_CURRENTS"},"data":[0,0,0,0,0,0,0,0,0,0,0,0,0,0,0,0,0,0,0,0,0,0,0,0,0,0,0,0,0,0,0,0,0,0,0,0,0,0,0,0,0,0,0,0,0,0,0,0,0,0,0,0,0,0,0,0,0,0,0.3668,0.3669,0,0.3742,0.3743,0.3743,0.3766,0.3766,0.3766,0.3765,0.3794,0.3795,0.3796,0,0,0,0,0,0,0,0,0,0,0,0,0,0.357,0.3572,0.3668,0.3669,0.367,0.3742,0.3743,0.3744,0.3766,0.3766,0.3766,0.3765,0.3793,0.3794,0.3796,0,0,0,0,0,0,0,0,0,0,0,0,0,0.3624,0.3572,0.3667,0.3691,0.3694,0.3742,0.3743,0.3744,0.3766,0.3766,0.3766,0.3765,0.3793,0.3794,0.3796,0.3812,0,0,0.38,0.3801,0,0,0,0,0,0,0,0,0.3621,0.3627,0.3686,0.3689,0.3693,0.3746,0.3719,0.3765,0.3766,0.3737,0.3765,0.3765,0.3774,0.3777,0.3791,0.3813,0.3815,0.38,0.3801,0.3802,0.3802,0,0,0,0,0,0,0,0.3617,0.3624,0.3696,0.3687,0.3691,0.3706,0.3713,0.3728,0.3755,0.374,0.3742,0.3752,0.3776,0.379,0.3792,0.3815,0.38,0.3802,0.3803,0.3803,0.392,0.3922,0,0,0,0,0,0,0.361,0.3621,0.3693,0.3698,0.3657,0.3708,0.3716,0.3728,0.3756,0.3761,0.3753,0.3753,0.3787,0.379,0.3793,0.3879,0.3802,0.3803,0.3804,0.3918,0.3921,0.3923,0,0,0,0,0,0,0.3608,0.3616,0.369,0.3662,0.3673,0.371,0.3724,0.373,0.3748,0.3767,0.377,0.3765,0.3787,0.3791,0.3833,0.3878,0.3804,0.3805,0.3916,0.3919,0.3922,0.401,0,0,0,0,0,0,0.3605,0.3615,0.3616,0.3662,0.3674,0.3738,0.3724,0.3731,0.3755,0.3757,0.3778,0.3781,0.3787,0.3831,0.3835,0.3878,0.3806,0.3913,0.3917,0.3921,0.4004,0.4016,0.4026,0,0,0,0,0,0.3601,0.361,0.3616,0.3625,0.3677,0.3739,0.3748,0.3771,0.3756,0.3782,0.3799,0.378,0.386,0.3834,0.3838,0.3883,0.3911,0.3916,0.3921,0.3999,0.4013,0.4025,0,0,0,0,0,0,0.3563,0.3615,0.3622,0.3644,0.3695,0.3744,0.3763,0.3774,0.3806,0.3805,0.3807,0.3813,0.387,0.3862,0.3833,0.393,0.3883,0.3889,0.3941,0.3955,0.3965,0.3958,0.3808,0,0,0,0,0,0.3557,0.3584,0.3636,0.3657,0.3681,0.3719,0.3742,0.3767,0.3803,0.3816,0.3831,0.3853,0.3894,0.3911,0.3939,0.3985,0.3993,0.4018,0.4029,0.4038,0.4036,0.4089,0.4105,0.394,0.394,0.394,0,0,0.3546,0.358,0.3593,0.3652,0.3687,0.3746,0.3733,0.3783,0.3836,0.3814,0.3875,0.389,0.3915,0.398,0.4004,0.3979,0.4096,0.4044,0.4052,0.4044,0.4096,0.4112,0.4126,0.3943,0.3943,0.3942,0,0,0.356,0.3573,0.3608,0.3656,0.3722,0.3761,0.3777,0.3835,0.3864,0.3929,0.3933,0.3972,0.4022,0.4057,0.4078,0.4161,0.4152,0.417,0.4219,0.4273,0.4287,0.4299,0.4356,0.4372,0.4175,0.4175,0.4175,0,0.3545,0.3596,0.3629,0.3685,0.3729,0.377,0.3831,0.3878,0.3944,0.3975,0.3962,0.4052,0.4064,0.4151,0.4183,0.4186,0.4213,0.4168,0.4287,0.4299,0.4309,0.4365,0.4382,0.418,0.4179,0.4179,0.4178,0,0.36,0.3638,0.3666,0.3753,0.3809,0.3867,0.3943,0.3999,0.4029,0.4069,0.415,0.4175,0.4227,0.4243,0.4238,0.4328,0.4323,0.4295,0.4251,0.4331,0.4385,0.4401,0.4187,0.4185,0.4184,0.4182,0,0,0.3565,0.3681,0.3686,0.3739,0.3849,0.3903,0.4005,0.4104,0.4154,0.4218,0.4279,0.4355,0.4352,0.4375,0.4378,0.4412,0.4517,0.4386,0.4387,0.4439,0.4648,0.4702,0.4724,0.4512,0.4515,0.4517,0.4664,0,0.3596,0.37,0.3756,0.3862,0.3926,0.4005,0.4087,0.4182,0.4246,0.4312,0.436,0.4409,0.4411,0.4422,0.4477,0.4495,0.4559,0.448,0.4565,0.4568,0.4602,0.4744,0.4528,0.4647,0.468,0.4682,0.4684,0,0.3632,0.3697,0.3798,0.392,0.3952,0.4015,0.4149,0.4227,0.4337,0.438,0.4458,0.4483,0.457,0.4527,0.4661,0.4613,0.4648,0.4657,0.4663,0.4688,0.4652,0.4567,0.4674,0.4606,0.4708,0.4706,0.4705,0,0.3602,0.3728,0.3806,0.385,0.3991,0.4041,0.4111,0.4232,0.4312,0.4402,0.4467,0.4562,0.4619,0.468,0.4762,0.4707,0.4891,0.4815,0.4909,0.4913,0.4732,0.4717,0.4773,0.4915,0.4914,0.4914,0.4913,0,0.3618,0.3665,0.3787,0.3825,0.3905,0.4008,0.4092,0.4177,0.4302,0.4391,0.4483,0.4588,0.4658,0.4785,0.4813,0.4959,0.4963,0.4957,0.4971,0.4762,0.4749,0.4681,0.4632,0.4919,0.4918,0.4917,0.4916,0,0.3556,0.3641,0.3726,0.3856,0.389,0.3937,0.4076,0.4136,0.4269,0.4393,0.443,0.4639,0.4811,0.4919,0.5027,0.5053,0.5019,0.5183,0.495,0.4936,0.4928,0.4891,0.4763,0.4625,0.5288,0.529,0.5292,0,0.3532,0.3571,0.3711,0.374,0.3782,0.3864,0.3915,0.4081,0.4154,0.4434,0.4487,0.473,0.487,0.512,0.5178,0.5286,0.5134,0.5166,0.5022,0.4951,0.4918,0.4692,0.4565,0.4814,0.4812,0.481,0.4809,0,0.3462,0.3509,0.3567,0.3637,0.3692,0.3777,0.3863,0.3933,0.4133,0.426,0.4455,0.4598,0.4907,0.4957,0.5173,0.5199,0.4926,0.5141,0.5096,0.4606,0.4326,0.4191,0.471,0.4794,0.4796,0.4797,0.4798,0.4798,0.3373,0.3392,0.3465,0.351,0.3577,0.3642,0.3649,0.3772,0.3886,0.4022,0.4274,0.4405,0.4671,0.4946,0.4967,0.4957,0.4894,0.4821,0.4802,0.4596,0.4395,0.4931,0.5023,0.5025,0.5028,0.503,0.5032,0,0.3246,0.328,0.3326,0.337,0.3374,0.3484,0.357,0.3548,0.3588,0.3789,0.3904,0.4155,0.4299,0.4522,0.47,0.4613,0.4313,0.4532,0.4109,0.4016,0.4524,0.4441,0.4375,0.4375,0.4375,0.4375,0.4376,0.4376,0.3179,0.3164,0.3196,0.3148,0.3177,0.3144,0.3166,0.3178,0.3268,0.3348,0.3471,0.3647,0.412,0.4431,0.4459,0.4353,0.4039,0.3875,0.3905,0.4246,0.4267,0.4287,0.4199,0.4084,0.4084,0.3149,0.3142,0.3138]},{"header":{"parameterUnit":"m.s-1","parameterCategory":2,"la1":30.2991,"la2":30.254,"lo1":-89.0895,"lo2":-89.0444,"dy":0.0017,"dx":0.0017,"nx":28,"ny":28,"refTime":"2024-05-10T03:00:00:Z","depth":"0","parameterNumber":3,"parameterNumberName":"V-component_of_CURRENTS"},"data":[0,0,0,0,0,0,0,0,0,0,0,0,0,0,0,0,0,0,0,0,0,0,0,0,0,0,0,0,0,0,0,0,0,0,0,0,0,0,0,0,0,0,0,0,0,0,0,0,0,0,0,0,0,0,0,0,0,0,-0.016,-0.0161,0,-0.0261,-0.0262,-0.0264,-0.0336,-0.0337,-0.0337,-0.0337,-0.0499,-0.0503,-0.0507,0,0,0,0,0,0,0,0,0,0,0,0,0,-0.0106,-0.0106,-0.016,-0.0161,-0.0162,-0.0261,-0.0262,-0.0264,-0.0336,-0.0337,-0.0337,-0.0338,-0.0498,-0.0503,-0.0507,0,0,0,0,0,0,0,0,0,0,0,0,0,-0.0162,-0.0106,-0.016,-0.0208,-0.0213,-0.026,-0.0262,-0.0264,-0.0336,-0.0337,-0.0337,-0.0338,-0.0496,-0.0502,-0.0508,-0.0532,0,0,-0.0526,-0.0529,0,0,0,0,0,0,0,0,-0.0159,-0.0164,-0.02,-0.0205,-0.0211,-0.0285,-0.0303,-0.0356,-0.0336,-0.0292,-0.0337,-0.0338,-0.0431,-0.0443,-0.0463,-0.054,-0.0547,-0.0527,-0.053,-0.0533,-0.0534,0,0,0,0,0,0,0,-0.0155,-0.0161,-0.0202,-0.0201,-0.0208,-0.0251,-0.0259,-0.0313,-0.036,-0.0296,-0.0301,-0.0308,-0.0435,-0.0457,-0.0467,-0.0549,-0.0526,-0.0532,-0.0535,-0.0538,-0.0716,-0.0717,0,0,0,0,0,0,-0.0133,-0.0156,-0.0199,-0.0205,-0.0183,-0.0251,-0.026,-0.0262,-0.0358,-0.0372,-0.0308,-0.0311,-0.0446,-0.046,-0.0473,-0.057,-0.0533,-0.0538,-0.0542,-0.0715,-0.0717,-0.0718,0,0,0,0,0,0,-0.0131,-0.0135,-0.0195,-0.0182,-0.0192,-0.0251,-0.0253,-0.0264,-0.0285,-0.0366,-0.0382,-0.0317,-0.0447,-0.0465,-0.053,-0.0574,-0.0541,-0.0546,-0.0714,-0.0716,-0.0717,-0.0724,0,0,0,0,0,0,-0.0129,-0.0134,-0.013,-0.018,-0.0192,-0.0221,-0.0252,-0.0265,-0.0288,-0.0294,-0.0379,-0.0395,-0.0449,-0.0521,-0.0536,-0.0582,-0.0551,-0.0712,-0.0715,-0.0717,-0.0722,-0.0726,-0.0729,0,0,0,0,0,-0.0127,-0.0118,-0.0128,-0.0134,-0.0183,-0.022,-0.0231,-0.0276,-0.0287,-0.0297,-0.036,-0.0392,-0.0547,-0.0527,-0.0544,-0.0593,-0.0711,-0.0714,-0.0717,-0.0721,-0.0725,-0.0729,0,0,0,0,0,0,-0.009,-0.0125,-0.0138,-0.0139,-0.0175,-0.0232,-0.0242,-0.0268,-0.0323,-0.0332,-0.0403,-0.0424,-0.05,-0.0536,-0.0512,-0.0649,-0.0636,-0.0643,-0.0634,-0.0638,-0.0642,-0.062,-0.0556,0,0,0,0,0,-0.0077,-0.0082,-0.0123,-0.0125,-0.0136,-0.0185,-0.0205,-0.0236,-0.0289,-0.0313,-0.0372,-0.0444,-0.0524,-0.0569,-0.0631,-0.0701,-0.0703,-0.0744,-0.0748,-0.075,-0.0744,-0.0784,-0.079,-0.0727,-0.0727,-0.0727,0,0,-0.0064,-0.0083,-0.0087,-0.0118,-0.0147,-0.0177,-0.0199,-0.0226,-0.0268,-0.0323,-0.0391,-0.045,-0.0541,-0.0628,-0.0666,-0.0666,-0.0766,-0.0754,-0.0755,-0.0748,-0.0787,-0.0793,-0.0799,-0.0729,-0.0728,-0.0728,0,0,-0.0044,-0.0054,-0.0055,-0.0082,-0.012,-0.0161,-0.0163,-0.0217,-0.0257,-0.0321,-0.0385,-0.0458,-0.0563,-0.0647,-0.0703,-0.0756,-0.0774,-0.0785,-0.0801,-0.084,-0.0845,-0.0849,-0.0839,-0.0842,-0.0798,-0.0798,-0.0798,0,-0.0028,-0.0034,-0.0062,-0.0075,-0.0099,-0.015,-0.0167,-0.0223,-0.0296,-0.0331,-0.034,-0.0502,-0.0575,-0.0703,-0.0739,-0.0765,-0.077,-0.0781,-0.0843,-0.0847,-0.0852,-0.084,-0.0844,-0.0798,-0.0798,-0.0798,-0.0798,0,-0.0014,-0.0025,-0.0027,-0.0067,-0.0098,-0.0117,-0.019,-0.0237,-0.0283,-0.0334,-0.0435,-0.053,-0.0618,-0.0677,-0.0736,-0.0828,-0.0813,-0.0832,-0.0827,-0.0858,-0.0844,-0.0848,-0.0799,-0.0799,-0.0799,-0.0799,0,0,0.004,-0.0009,-0.0008,-0.0015,-0.0092,-0.0104,-0.0193,-0.027,-0.0292,-0.0394,-0.043,-0.0606,-0.0627,-0.0691,-0.0772,-0.0838,-0.0882,-0.0857,-0.0859,-0.0835,-0.0934,-0.0839,-0.0834,-0.0917,-0.0919,-0.092,-0.0902,0,0.0059,0.0049,0.0005,-0.0014,-0.0024,-0.0106,-0.0163,-0.0243,-0.0309,-0.0353,-0.0485,-0.0536,-0.0645,-0.0666,-0.0762,-0.0836,-0.0897,-0.0883,-0.0916,-0.0916,-0.082,-0.0837,-0.0772,-0.0745,-0.0905,-0.0906,-0.0906,0,0.0088,0.0078,0.0067,0.0033,0.0025,0.0004,-0.0067,-0.0127,-0.0237,-0.0278,-0.0381,-0.0445,-0.0576,-0.063,-0.0799,-0.0783,-0.0863,-0.0927,-0.0928,-0.0839,-0.0829,-0.0746,-0.0745,-0.0989,-0.0912,-0.0912,-0.0911,0,0.016,0.0127,0.0125,0.011,0.0052,0.0038,0.0004,-0.0092,-0.0103,-0.0208,-0.0186,-0.0368,-0.0389,-0.0557,-0.0696,-0.0747,-0.0828,-0.0904,-0.0898,-0.089,-0.0839,-0.0824,-0.1068,-0.1015,-0.1015,-0.1015,-0.1015,0,0.0201,0.021,0.0175,0.0182,0.0214,0.0136,0.016,0.009,0.0044,0.0089,-0.0109,-0.0075,-0.037,-0.045,-0.0632,-0.0738,-0.0772,-0.0888,-0.0886,-0.0836,-0.0821,-0.1032,-0.1161,-0.1015,-0.1015,-0.1015,-0.1015,0,0.0291,0.0247,0.0272,0.0247,0.0253,0.0286,0.0302,0.0326,0.0257,0.0317,0.0307,0.0164,0.0069,-0.0188,-0.0406,-0.0587,-0.0836,-0.0767,-0.0659,-0.0645,-0.0889,-0.1017,-0.119,-0.1302,-0.0778,-0.0775,-0.0773,0,0.0337,0.0352,0.0367,0.0408,0.0413,0.0452,0.0492,0.0439,0.0492,0.0505,0.0576,0.0489,0.0494,0.0206,-0.0136,-0.0411,-0.0693,-0.056,-0.0673,-0.0884,-0.1028,-0.1139,-0.1233,-0.0606,-0.0603,-0.06,-0.0598,0,0.0446,0.045,0.0481,0.0565,0.0628,0.0697,0.0766,0.0847,0.0827,0.0918,0.1045,0.1059,0.0789,0.0538,0.0126,-0.0097,-0.0706,-0.0511,-0.0789,-0.0953,-0.1034,-0.1143,-0.0613,-0.0575,-0.0577,-0.0579,-0.058,-0.0581,0.0552,0.0609,0.0651,0.074,0.0824,0.0945,0.1045,0.1158,0.1312,0.1472,0.1447,0.1543,0.1108,0.0568,0.0205,-0.044,-0.0508,-0.0678,-0.0821,-0.092,-0.1028,-0.0406,-0.0331,-0.0331,-0.0332,-0.0333,-0.0333,0,0.0677,0.0727,0.0821,0.0932,0.1064,0.1062,0.1234,0.1359,0.1615,0.1787,0.1927,0.1828,0.1292,0.0664,-0.0176,-0.0679,-0.0937,-0.0986,-0.1203,-0.1294,-0.0786,-0.0782,-0.0728,-0.0728,-0.0728,-0.0727,-0.0727,-0.0727,0.0742,0.0851,0.0891,0.1119,0.1213,0.1397,0.151,0.1723,0.1892,0.2169,0.2281,0.231,0.1892,0.03,-0.084,-0.1129,-0.1548,-0.1575,-0.183,-0.1561,-0.1547,-0.1534,-0.1567,-0.1679,-0.168,-0.2291,-0.2297,-0.2302]}],[{"header":{"parameterUnit":"m.s-1","parameterCategory":2,"la1":30.2991,"la2":30.254,"lo1":-89.0895,"lo2":-89.0444,"dy":0.0017,"dx":0.0017,"nx":28,"ny":28,"refTime":"2024-05-10T03:00:00:Z","depth":"2","parameterNumber":2,"parameterNumberName":"U-component_of_CURRENTS"},"data":[0,0,0,0,0,0,0,0,0,0,0,0,0,0,0,0,0,0,0,0,0,0,0,0,0,0,0,0,0,0,0,0,0,0,0,0,0,0,0,0,0,0,0,0,0,0,0,0,0,0,0,0,0,0,0,0,0,0,0.2839,0.284,0,0.2889,0.2889,0.289,0.291,0.291,0.291,0.291,0.296,0.2961,0.2963,0,0,0,0,0,0,0,0,0,0,0,0,0,0.2755,0.2756,0.2839,0.284,0.2841,0.2889,0.2889,0.289,0.291,0.291,0.291,0.291,0.296,0.2961,0.2963,0,0,0,0,0,0,0,0,0,0,0,0,0,0.2794,0.2757,0.2839,0.2859,0.2862,0.2889,0.2889,0.289,0.2909,0.291,0.291,0.291,0.2959,0.2961,0.2963,0.2967,0,0,0.2968,0.2969,0,0,0,0,0,0,0,0,0.2791,0.2796,0.2855,0.2858,0.2861,0.2896,0.2878,0.2917,0.2909,0.2888,0.291,0.2911,0.2941,0.2944,0.2948,0.297,0.2972,0.2968,0.2969,0.297,0.2971,0,0,0,0,0,0,0,0.2789,0.2794,0.2855,0.2856,0.286,0.2864,0.287,0.2885,0.2909,0.289,0.2892,0.2903,0.2942,0.2946,0.2949,0.2973,0.2968,0.297,0.2971,0.2971,0.3066,0.3067,0,0,0,0,0,0,0.279,0.2792,0.2854,0.2857,0.283,0.2866,0.2872,0.2882,0.2909,0.2915,0.2903,0.2904,0.2943,0.2947,0.2951,0.3049,0.297,0.2972,0.2973,0.3064,0.3066,0.3067,0,0,0,0,0,0,0.2788,0.2795,0.2852,0.2828,0.2836,0.2867,0.2878,0.2883,0.2909,0.292,0.2925,0.2928,0.2944,0.2949,0.2991,0.3047,0.2972,0.2974,0.3062,0.3065,0.3067,0.3186,0,0,0,0,0,0,0.2785,0.2794,0.2807,0.2828,0.2838,0.2882,0.2879,0.2884,0.2916,0.2919,0.2943,0.2946,0.2944,0.2989,0.2993,0.3048,0.2975,0.3061,0.3063,0.3066,0.318,0.3192,0.3202,0,0,0,0,0,0.2782,0.2797,0.2807,0.2815,0.2853,0.2884,0.2889,0.2909,0.2917,0.2933,0.2956,0.2947,0.3009,0.2992,0.2996,0.3053,0.3059,0.3063,0.3066,0.3175,0.3189,0.3201,0,0,0,0,0,0,0.2763,0.2802,0.2813,0.2838,0.2867,0.2889,0.2908,0.2923,0.2952,0.2961,0.2967,0.2973,0.3028,0.3018,0.2999,0.3084,0.3032,0.3036,0.3113,0.3127,0.3138,0.3135,0.2977,0,0,0,0,0,0.2767,0.2793,0.2825,0.2848,0.2863,0.289,0.2908,0.2925,0.2952,0.2966,0.2982,0.3005,0.3041,0.3066,0.3078,0.3131,0.314,0.3167,0.3178,0.3187,0.3187,0.3264,0.3283,0.3078,0.3078,0.3078,0,0,0.2765,0.2792,0.2806,0.2847,0.2869,0.2905,0.2902,0.2938,0.2983,0.2967,0.3027,0.3039,0.3059,0.3118,0.3143,0.3124,0.3252,0.3192,0.32,0.3194,0.327,0.329,0.3308,0.3081,0.308,0.308,0,0,0.2775,0.2801,0.2827,0.2856,0.2902,0.2925,0.2943,0.2977,0.301,0.3064,0.3073,0.3118,0.3158,0.3194,0.3218,0.3293,0.33,0.3301,0.3372,0.3449,0.3467,0.3483,0.3532,0.3551,0.3317,0.3318,0.3318,0,0.2774,0.2813,0.2838,0.2874,0.29,0.294,0.2973,0.3022,0.3068,0.3102,0.3094,0.3185,0.3197,0.3299,0.3326,0.3322,0.3357,0.3328,0.3467,0.3482,0.3497,0.3543,0.3563,0.3324,0.3323,0.3323,0.3322,0,0.2806,0.2842,0.2862,0.2924,0.2951,0.2991,0.3051,0.3093,0.3133,0.3181,0.3273,0.3302,0.3355,0.338,0.3381,0.3499,0.3488,0.3468,0.344,0.3525,0.3568,0.3586,0.3333,0.333,0.3329,0.3327,0,0,0.2791,0.287,0.2879,0.2909,0.2982,0.3005,0.3085,0.3165,0.3254,0.3298,0.3399,0.3463,0.3483,0.3509,0.3533,0.3606,0.374,0.3591,0.3592,0.3651,0.391,0.382,0.3831,0.3762,0.3766,0.3769,0.3903,0,0.2812,0.2881,0.2913,0.2977,0.3013,0.3062,0.3158,0.3236,0.3314,0.3426,0.3482,0.3594,0.3542,0.3605,0.366,0.3724,0.3793,0.3704,0.3807,0.3809,0.3729,0.3851,0.3564,0.3653,0.3921,0.3924,0.3927,0,0.2828,0.2878,0.294,0.3025,0.3049,0.3106,0.3233,0.3332,0.3494,0.3563,0.365,0.3702,0.3814,0.3768,0.3899,0.3852,0.3882,0.392,0.3926,0.3809,0.3754,0.3607,0.3676,0.3957,0.3955,0.3953,0.3951,0,0.2807,0.2884,0.2934,0.2962,0.3082,0.3126,0.3217,0.3375,0.3464,0.3677,0.3744,0.3874,0.3952,0.4015,0.4042,0.4004,0.4184,0.4136,0.4079,0.4072,0.3826,0.3791,0.4234,0.4234,0.4234,0.4234,0.4233,0,0.283,0.2844,0.2936,0.2977,0.306,0.3154,0.3288,0.3407,0.3581,0.3696,0.3828,0.3908,0.4023,0.4104,0.4118,0.4153,0.4239,0.4114,0.4116,0.3857,0.3825,0.4071,0.405,0.4239,0.4238,0.4237,0.4236,0,0.2787,0.2847,0.2884,0.3012,0.3054,0.3123,0.328,0.3379,0.3583,0.3724,0.379,0.3961,0.4091,0.4171,0.4305,0.4244,0.4305,0.4291,0.3969,0.3929,0.412,0.4104,0.4255,0.4254,0.4252,0.4251,0.425,0,0.2766,0.2797,0.2895,0.2913,0.2965,0.308,0.3168,0.3365,0.3452,0.3719,0.376,0.3957,0.4019,0.4187,0.4206,0.426,0.4306,0.3993,0.3852,0.4144,0.4131,0.4117,0.4103,0.358,0.3574,0.3568,0.3564,0,0.2702,0.2732,0.2776,0.2859,0.2911,0.2975,0.3108,0.3157,0.3397,0.3492,0.3624,0.3712,0.3918,0.3855,0.3972,0.3948,0.3963,0.3886,0.4318,0.361,0.3516,0.35,0.3507,0.3517,0.3522,0.3525,0.3528,0.353,0.2618,0.2624,0.2698,0.2747,0.2804,0.2849,0.286,0.2979,0.3065,0.3198,0.3373,0.3431,0.3556,0.3576,0.3508,0.3496,0.3748,0.3579,0.3592,0.3611,0.35,0.3408,0.3368,0.3371,0.3374,0.3377,0.338,0,0.2516,0.2537,0.2579,0.2611,0.2613,0.2713,0.2783,0.2762,0.2774,0.2949,0.3027,0.2874,0.2892,0.3022,0.2944,0.2972,0.2911,0.2844,0.2734,0.2786,0.2832,0.2675,0.2326,0.2322,0.2318,0.2315,0,0,0.2447,0.2429,0.2455,0.24,0.2438,0.2393,0.2398,0.2394,0.247,0.2462,0.2496,0.2756,0.2927,0.2563,0.256,0.242,0.2561,0.2331,0.3193,0.3116,0.3154,0.3297,0.3122,0,0,0,0,0]},{"header":{"parameterUnit":"m.s-1","parameterCategory":2,"la1":30.2991,"la2":30.254,"lo1":-89.0895,"lo2":-89.0444,"dy":0.0017,"dx":0.0017,"nx":28,"ny":28,"refTime":"2024-05-10T03:00:00:Z","depth":"2","parameterNumber":3,"parameterNumberName":"V-component_of_CURRENTS"},"data":[0,0,0,0,0,0,0,0,0,0,0,0,0,0,0,0,0,0,0,0,0,0,0,0,0,0,0,0,0,0,0,0,0,0,0,0,0,0,0,0,0,0,0,0,0,0,0,0,0,0,0,0,0,0,0,0,0,0,0.002,0.0019,0,-0.0076,-0.0078,-0.0079,-0.0145,-0.0146,-0.0146,-0.0146,-0.0289,-0.0292,-0.0296,0,0,0,0,0,0,0,0,0,0,0,0,0,0.0083,0.0083,0.002,0.0019,0.0018,-0.0076,-0.0078,-0.0079,-0.0145,-0.0146,-0.0146,-0.0147,-0.0288,-0.0292,-0.0296,0,0,0,0,0,0,0,0,0,0,0,0,0,0.0028,0.0083,0.002,-0.0026,-0.0031,-0.0076,-0.0078,-0.008,-0.0145,-0.0146,-0.0146,-0.0147,-0.0286,-0.0291,-0.0297,-0.0316,0,0,-0.0312,-0.0314,0,0,0,0,0,0,0,0,0.0031,0.0025,-0.0018,-0.0023,-0.0028,-0.0099,-0.0108,-0.0161,-0.0145,-0.0103,-0.0146,-0.0147,-0.0228,-0.0238,-0.0256,-0.0323,-0.0329,-0.0313,-0.0316,-0.0318,-0.0319,0,0,0,0,0,0,0,0.0035,0.0029,-0.0019,-0.0019,-0.0025,-0.0063,-0.0071,-0.0118,-0.0163,-0.0106,-0.0111,-0.012,-0.0232,-0.0251,-0.026,-0.0331,-0.0313,-0.0317,-0.032,-0.0322,-0.0427,-0.0427,0,0,0,0,0,0,0.0053,0.0033,-0.0016,-0.0022,0.0001,-0.0064,-0.0073,-0.0076,-0.0161,-0.0174,-0.012,-0.0123,-0.0242,-0.0254,-0.0265,-0.0289,-0.0318,-0.0323,-0.0326,-0.0427,-0.0427,-0.0427,0,0,0,0,0,0,0.0055,0.005,-0.0012,0.0003,-0.0007,-0.0063,-0.0067,-0.0078,-0.0097,-0.0171,-0.0185,-0.0128,-0.0243,-0.0258,-0.0304,-0.0296,-0.0325,-0.033,-0.0428,-0.0427,-0.0427,-0.034,0,0,0,0,0,0,0.0057,0.0051,0.0052,0.0005,-0.0007,-0.0029,-0.0067,-0.0079,-0.0102,-0.0107,-0.0183,-0.0197,-0.0244,-0.0295,-0.0309,-0.0303,-0.0334,-0.0428,-0.0428,-0.0427,-0.0344,-0.0337,-0.0332,0,0,0,0,0,0.006,0.007,0.0053,0.0047,-0.0002,-0.0028,-0.0037,-0.0081,-0.0101,-0.0102,-0.0156,-0.0194,-0.0301,-0.0299,-0.0315,-0.0311,-0.0428,-0.0428,-0.0427,-0.0346,-0.0338,-0.0332,0,0,0,0,0,0,0.0098,0.0063,0.0044,0.0042,0.0013,-0.0038,-0.0045,-0.0074,-0.0118,-0.0124,-0.0194,-0.0211,-0.0247,-0.0291,-0.0287,-0.0339,-0.037,-0.0372,-0.0303,-0.0296,-0.029,-0.0225,-0.0338,0,0,0,0,0,0.0108,0.0106,0.0066,0.0065,0.0055,0.0007,-0.0011,-0.0038,-0.0081,-0.0101,-0.0154,-0.021,-0.0257,-0.0284,-0.0331,-0.0362,-0.0395,-0.0369,-0.0362,-0.0357,-0.0315,-0.0395,-0.0392,-0.0425,-0.0425,-0.0425,0,0,0.0123,0.0102,0.0101,0.0072,0.0046,0.0049,-0.0005,-0.0021,-0.0011,-0.011,-0.0119,-0.0191,-0.026,-0.0292,-0.0312,-0.0328,-0.0362,-0.0356,-0.0351,-0.0311,-0.0394,-0.0391,-0.0388,-0.0424,-0.0424,-0.0424,0,0,0.0156,0.0135,0.0146,0.0129,0.0098,0.0077,0.0078,0.0032,0.0022,-0.0004,-0.007,-0.0129,-0.0201,-0.0246,-0.0279,-0.0266,-0.0327,-0.0292,-0.021,-0.029,-0.0287,-0.0286,-0.0307,-0.0307,-0.029,-0.029,-0.029,0,0.0173,0.0183,0.0145,0.0152,0.0163,0.01,0.0133,0.0108,0.0053,0.0062,0.0009,-0.0097,-0.017,-0.0199,-0.0199,-0.0249,-0.0288,-0.0234,-0.0281,-0.028,-0.028,-0.0302,-0.0304,-0.0285,-0.0286,-0.0286,-0.0287,0,0.0213,0.0222,0.023,0.023,0.024,0.0249,0.0231,0.0229,0.0201,0.0173,0.0137,0.0021,-0.0036,-0.0085,-0.0139,-0.0169,-0.0193,-0.0265,-0.0294,-0.0271,-0.0296,-0.0299,-0.0279,-0.0281,-0.0282,-0.0283,0,0,0.0256,0.026,0.0264,0.0294,0.029,0.0307,0.0344,0.0367,0.038,0.0311,0.0321,0.0218,0.0143,0.0103,0.0001,-0.0072,-0.0118,-0.0156,-0.0162,-0.0163,-0.0253,-0.0269,-0.0275,-0.0214,-0.0215,-0.0215,-0.0265,0,0.0303,0.0346,0.035,0.0419,0.045,0.0446,0.0474,0.0486,0.0469,0.0448,0.0356,0.0297,0.0217,0.0153,0.0083,-0.0086,-0.0126,-0.0094,-0.0284,-0.0287,-0.0297,-0.0279,-0.0238,-0.028,-0.0269,-0.027,-0.027,0,0.0352,0.0377,0.0453,0.0519,0.0536,0.0565,0.0635,0.0646,0.0618,0.0591,0.0545,0.0456,0.0365,0.0256,0.0068,0.0086,-0.0041,-0.0167,-0.0174,-0.0212,-0.031,-0.0307,-0.0287,-0.0277,-0.0276,-0.0276,-0.0275,0,0.0416,0.0468,0.0543,0.056,0.0603,0.0656,0.0677,0.0685,0.0722,0.0664,0.0664,0.0548,0.0464,0.0295,0.0087,0.0059,-0.0132,-0.0218,-0.0323,-0.0325,-0.0332,-0.0333,-0.0319,-0.0319,-0.0319,-0.0319,-0.0318,0,0.0476,0.0539,0.0564,0.0603,0.0683,0.0698,0.0772,0.0771,0.0777,0.0826,0.0722,0.0724,0.0461,0.0337,0.0137,-0.008,-0.0085,-0.0275,-0.0341,-0.0299,-0.0297,-0.0335,-0.0337,-0.032,-0.032,-0.032,-0.0319,0,0.0539,0.0551,0.0638,0.0694,0.0712,0.0765,0.0845,0.0892,0.0871,0.0932,0.0924,0.0845,0.0673,0.0445,0.015,-0.0013,-0.024,-0.0309,-0.0206,-0.0258,-0.0383,-0.0379,-0.0431,-0.0432,-0.0433,-0.0434,-0.0434,0,0.0573,0.0612,0.0699,0.0745,0.0775,0.0841,0.089,0.0921,0.0997,0.1027,0.1076,0.095,0.0893,0.0495,0.0153,-0.0167,-0.0218,-0.0326,-0.0378,-0.0336,-0.0395,-0.039,-0.0385,-0.0346,-0.0346,-0.0345,-0.0345,0,0.0638,0.0666,0.0735,0.0815,0.089,0.0982,0.1067,0.1147,0.1198,0.1255,0.1307,0.1258,0.0913,0.0583,0.0148,-0.0062,-0.0282,-0.0334,-0.034,-0.0325,-0.0261,-0.0317,-0.0315,-0.0344,-0.0344,-0.0344,-0.0344,-0.0344,0.0686,0.0738,0.0812,0.0899,0.0992,0.1114,0.1197,0.131,0.1431,0.1522,0.1478,0.1404,0.1045,0.0481,0.0109,-0.0275,-0.0269,-0.0402,-0.0401,-0.04,-0.0383,-0.0324,-0.0412,-0.0412,-0.0413,-0.0413,-0.0413,0,0.0731,0.0792,0.0883,0.1001,0.1118,0.1153,0.1316,0.1401,0.1549,0.1626,0.1647,0.1325,0.0964,0.0555,-0.0019,-0.0362,-0.0386,-0.0456,-0.0417,-0.0414,-0.0413,-0.0397,-0.043,-0.0431,-0.0433,-0.0434,0,0,0.0757,0.0849,0.0898,0.1079,0.117,0.1323,0.1419,0.1544,0.1633,0.1696,0.1666,0.1572,0.1088,0.0673,0.021,-0.0117,-0.0184,-0.0171,-0.0117,-0.0012,-0.0007,-0.0338,-0.0304,0,0,0,0,0]}],[{"header":{"parameterUnit":"m.s-1","parameterCategory":2,"la1":30.2991,"la2":30.254,"lo1":-89.0895,"lo2":-89.0444,"dy":0.0017,"dx":0.0017,"nx":28,"ny":28,"refTime":"2024-05-10T03:00:00:Z","depth":"4","parameterNumber":2,"parameterNumberName":"U-component_of_CURRENTS"},"data":[0,0,0,0,0,0,0,0,0,0,0,0,0,0,0,0,0,0,0,0,0,0,0,0,0,0,0,0,0,0,0,0,0,0,0,0,0,0,0,0,0,0,0,0,0,0,0,0,0,0,0,0,0,0,0,0,0,0,0.1708,0.1709,0,0.1765,0.1766,0.1766,0.1811,0.1812,0.1813,0.1813,0.1915,0.1917,0.1919,0,0,0,0,0,0,0,0,0,0,0,0,0,0.1632,0.1633,0.1708,0.1709,0.171,0.1765,0.1766,0.1766,0.1811,0.1812,0.1813,0.1814,0.1914,0.1916,0.1919,0,0,0,0,0,0,0,0,0,0,0,0,0,0.1672,0.1633,0.1708,0.1741,0.1745,0.1765,0.1766,0.1766,0.1811,0.1812,0.1813,0.1814,0.1913,0.1916,0.1919,0.1916,0,0,0.1928,0.193,0,0,0,0,0,0,0,0,0.1669,0.1674,0.1735,0.1739,0.1743,0.1785,0.1777,0.182,0.1811,0.1782,0.1813,0.1815,0.1877,0.1883,0.1886,0.192,0.1925,0.1929,0.193,0.1932,0.1933,0,0,0,0,0,0,0,0.1667,0.1672,0.1727,0.1736,0.1741,0.1752,0.1759,0.1784,0.1821,0.1785,0.1789,0.18,0.1879,0.1883,0.1889,0.1926,0.1928,0.1931,0.1933,0.1934,0.2052,0.2054,0,0,0,0,0,0,0.1665,0.1669,0.1726,0.1729,0.1712,0.1753,0.176,0.1768,0.182,0.1829,0.18,0.1802,0.1877,0.1885,0.1893,0.1977,0.1932,0.1935,0.1936,0.2051,0.2053,0.2054,0,0,0,0,0,0,0.1663,0.1669,0.1723,0.1703,0.1712,0.1753,0.1762,0.1769,0.1813,0.1831,0.1841,0.1842,0.1878,0.1888,0.1944,0.1978,0.1936,0.1939,0.2049,0.2051,0.2053,0.2091,0,0,0,0,0,0,0.1661,0.1668,0.169,0.1703,0.1713,0.1754,0.1761,0.1769,0.1817,0.1823,0.187,0.1878,0.188,0.194,0.1947,0.1981,0.1941,0.2048,0.205,0.2053,0.2088,0.2094,0.2099,0,0,0,0,0,0.1658,0.1675,0.1691,0.1699,0.1736,0.1755,0.1761,0.1791,0.1819,0.1836,0.1873,0.1879,0.1961,0.1943,0.1952,0.1988,0.2047,0.205,0.2053,0.2085,0.2092,0.2099,0,0,0,0,0,0,0.1653,0.1682,0.1699,0.1726,0.175,0.1764,0.1791,0.1815,0.1857,0.1876,0.1896,0.1906,0.196,0.1973,0.1953,0.2028,0.2005,0.201,0.2027,0.2034,0.2039,0.2041,0.1943,0,0,0,0,0,0.1662,0.1687,0.1709,0.1735,0.175,0.178,0.1801,0.1822,0.1853,0.1874,0.1909,0.1946,0.1971,0.2004,0.202,0.2073,0.209,0.2101,0.2107,0.2111,0.2119,0.2182,0.2195,0.2064,0.2064,0.2064,0,0,0.1667,0.169,0.1704,0.1738,0.1761,0.1781,0.1796,0.1834,0.1858,0.1879,0.1938,0.1963,0.1985,0.203,0.2058,0.2055,0.2155,0.2115,0.2119,0.2124,0.2187,0.22,0.2211,0.2066,0.2066,0.2065,0,0,0.1678,0.1711,0.1731,0.1752,0.1794,0.1808,0.1829,0.1866,0.1894,0.1947,0.1961,0.2016,0.2065,0.2086,0.2102,0.2154,0.2171,0.2165,0.2213,0.2275,0.2286,0.2296,0.2324,0.2336,0.2183,0.2183,0.2183,0,0.1689,0.1713,0.1741,0.1762,0.1783,0.1825,0.1845,0.1873,0.1927,0.1955,0.1974,0.2066,0.2088,0.2145,0.2162,0.2168,0.2197,0.2184,0.2282,0.2293,0.2303,0.2328,0.2342,0.2185,0.2185,0.2185,0.2184,0,0.1697,0.1733,0.1747,0.1787,0.181,0.1837,0.187,0.1917,0.1966,0.1994,0.2073,0.2114,0.2178,0.2191,0.2196,0.2278,0.2272,0.227,0.2264,0.2318,0.2342,0.2355,0.2188,0.2187,0.2187,0.2186,0,0,0.1682,0.1742,0.1753,0.1777,0.1826,0.1844,0.1893,0.194,0.1996,0.2058,0.2133,0.2185,0.2232,0.2254,0.2281,0.2341,0.2429,0.2347,0.235,0.2372,0.2555,0.2433,0.2435,0.2456,0.2458,0.2461,0.2539,0,0.1686,0.1723,0.1756,0.1801,0.1816,0.187,0.1911,0.1964,0.2029,0.2113,0.2174,0.2255,0.2248,0.2313,0.2365,0.2419,0.2469,0.2407,0.2502,0.2504,0.2388,0.2448,0.247,0.2549,0.2552,0.2554,0.2556,0,0.1669,0.1704,0.1737,0.1807,0.1823,0.1869,0.1956,0.2,0.2106,0.2163,0.2258,0.2316,0.2419,0.2414,0.2531,0.2499,0.2532,0.2562,0.2566,0.2448,0.2406,0.2488,0.2579,0.2578,0.2576,0.2574,0.2573,0,0.1609,0.1688,0.1716,0.1736,0.1818,0.1871,0.1936,0.2028,0.2078,0.2226,0.23,0.2406,0.2502,0.2562,0.2631,0.2602,0.2752,0.2714,0.2623,0.2614,0.2683,0.2672,0.2792,0.2792,0.2792,0.2792,0.2792,0,0.1564,0.1605,0.1711,0.1722,0.1795,0.1862,0.1955,0.2033,0.2152,0.2227,0.2342,0.243,0.2554,0.2649,0.2673,0.2693,0.2789,0.264,0.2636,0.2694,0.2683,0.2692,0.2679,0.2795,0.2794,0.2794,0.2793,0,0.1489,0.1548,0.1597,0.1711,0.1761,0.1818,0.1968,0.2027,0.2156,0.2271,0.233,0.2484,0.261,0.27,0.2818,0.2746,0.2781,0.2762,0.2823,0.282,0.2582,0.2571,0.2648,0.2644,0.2641,0.2639,0.2637,0,0.1451,0.1464,0.1582,0.1628,0.17,0.1809,0.1877,0.2014,0.2075,0.2284,0.2324,0.2511,0.2604,0.2655,0.2755,0.2796,0.2768,0.2748,0.2646,0.2584,0.2573,0.2566,0.2558,0.2632,0.2632,0.2631,0.263,0,0.139,0.144,0.1485,0.1571,0.1657,0.1733,0.1854,0.1881,0.204,0.2184,0.2285,0.2369,0.2506,0.2583,0.2648,0.2665,0.2738,0.2716,0.2721,0.2625,0.2566,0.2556,0.2552,0.262,0.2621,0.2622,0.2623,0,0.1362,0.1378,0.1436,0.1508,0.1597,0.1632,0.1707,0.1798,0.1869,0.2091,0.2132,0.2329,0.2491,0.2519,0.2577,0.2595,0.2543,0.244,0.2458,0.247,0.2378,0.2275,0.2248,0,0,0,0,0,0.1326,0.1327,0.1377,0.1427,0.1504,0.1556,0.1672,0.1744,0.1907,0.1931,0.2021,0.2145,0.2253,0.2346,0.233,0.2493,0.2545,0.2461,0.2432,0.2563,0.2575,0.2484,0,0,0,0,0,0,0.1297,0.1334,0.1338,0.1341,0.1366,0.1432,0.1497,0.1609,0.1623,0.1808,0.1875,0.2027,0.2156,0.2254,0.2295,0.2324,0.2264,0.2582,0.2577,0.2557,0.2567,0.2577,0.2487,0,0,0,0,0]},{"header":{"parameterUnit":"m.s-1","parameterCategory":2,"la1":30.2991,"la2":30.254,"lo1":-89.0895,"lo2":-89.0444,"dy":0.0017,"dx":0.0017,"nx":28,"ny":28,"refTime":"2024-05-10T03:00:00:Z","depth":"4","parameterNumber":3,"parameterNumberName":"V-component_of_CURRENTS"},"data":[0,0,0,0,0,0,0,0,0,0,0,0,0,0,0,0,0,0,0,0,0,0,0,0,0,0,0,0,0,0,0,0,0,0,0,0,0,0,0,0,0,0,0,0,0,0,0,0,0,0,0,0,0,0,0,0,0,0,0.012,0.0119,0,0.0055,0.0054,0.0054,0.0012,0.0012,0.0011,0.0011,-0.0086,-0.0088,-0.0091,0,0,0,0,0,0,0,0,0,0,0,0,0,0.0159,0.0159,0.012,0.0119,0.0118,0.0055,0.0054,0.0054,0.0012,0.0012,0.0011,0.0011,-0.0085,-0.0088,-0.0091,0,0,0,0,0,0,0,0,0,0,0,0,0,0.0123,0.0159,0.012,0.009,0.0087,0.0056,0.0054,0.0053,0.0012,0.0012,0.0011,0.0011,-0.0084,-0.0088,-0.0091,-0.0106,0,0,-0.0102,-0.0104,0,0,0,0,0,0,0,0,0.0125,0.0122,0.0095,0.0092,0.0088,0.0041,0.0032,-0.0001,0.0012,0.004,0.0011,0.0011,-0.0046,-0.0053,-0.0064,-0.011,-0.0114,-0.0102,-0.0105,-0.0106,-0.0107,0,0,0,0,0,0,0,0.0128,0.0124,0.0094,0.0094,0.009,0.0063,0.0058,0.0026,-0.0001,0.0038,0.0035,0.0028,-0.0048,-0.006,-0.0067,-0.0116,-0.0102,-0.0106,-0.0108,-0.0109,-0.0148,-0.0147,0,0,0,0,0,0,0.0139,0.0127,0.0096,0.0092,0.0106,0.0063,0.0057,0.0057,0.0,-0.0009,0.0028,0.0026,-0.0054,-0.0062,-0.007,-0.005,-0.0106,-0.0109,-0.0111,-0.0149,-0.0147,-0.0146,0,0,0,0,0,0,0.014,0.0137,0.0099,0.0108,0.0101,0.0063,0.0062,0.0056,0.0047,-0.0007,-0.0016,0.0027,-0.0055,-0.0065,-0.0083,-0.0055,-0.0111,-0.0114,-0.015,-0.0148,-0.0147,-0.0035,0,0,0,0,0,0,0.0142,0.0138,0.0142,0.0109,0.0101,0.0094,0.0063,0.0055,0.0043,0.0039,-0.0011,-0.0021,-0.0056,-0.0077,-0.0086,-0.0061,-0.0117,-0.0151,-0.0149,-0.0147,-0.004,-0.003,-0.0021,0,0,0,0,0,0.0143,0.0155,0.0143,0.0139,0.0107,0.0095,0.0089,0.006,0.0043,0.0049,0.0017,-0.0019,-0.0071,-0.0079,-0.009,-0.0065,-0.0152,-0.015,-0.0147,-0.0045,-0.0032,-0.0021,0,0,0,0,0,0,0.0173,0.0151,0.0137,0.014,0.0124,0.0088,0.0088,0.0067,0.0046,0.0042,-0.0009,-0.002,-0.0021,-0.0062,-0.007,-0.0071,-0.0116,-0.0116,-0.0034,-0.0023,-0.0014,0.0005,-0.012,0,0,0,0,0,0.0182,0.0185,0.0159,0.0161,0.0157,0.0124,0.0114,0.0097,0.0072,0.0062,0.0026,-0.0007,-0.002,-0.0036,-0.006,-0.0067,-0.0114,-0.0058,-0.0048,-0.004,-0.0032,-0.0079,-0.0073,-0.0138,-0.0138,-0.0138,0,0,0.0195,0.0181,0.0183,0.0168,0.0151,0.0161,0.0118,0.0112,0.0125,0.0054,0.0057,0.0025,-0.0014,-0.0011,-0.0016,-0.0043,-0.0045,-0.0037,-0.0029,-0.0026,-0.0076,-0.007,-0.0064,-0.0136,-0.0137,-0.0137,0,0,0.0225,0.0211,0.0226,0.0219,0.0202,0.0188,0.0192,0.0163,0.0157,0.0155,0.0117,0.0103,0.0066,0.0051,0.0038,0.0083,0.0011,0.0072,0.013,0.0085,0.009,0.0094,0.0047,0.0045,0.0072,0.0073,0.0073,0,0.0239,0.0254,0.0228,0.0241,0.0249,0.0208,0.0236,0.0225,0.0195,0.02,0.0172,0.014,0.0103,0.0116,0.0133,0.0107,0.0062,0.0093,0.0098,0.0101,0.0103,0.0053,0.005,0.0078,0.0078,0.0077,0.0076,0,0.0279,0.0294,0.0304,0.0313,0.032,0.0334,0.0324,0.0326,0.0312,0.0299,0.0305,0.0254,0.0235,0.0224,0.0192,0.0197,0.0155,0.0121,0.0071,0.0116,0.0061,0.0056,0.0086,0.0084,0.0083,0.0081,0,0,0.0306,0.0329,0.0334,0.0358,0.0362,0.0376,0.0406,0.0426,0.0447,0.0417,0.044,0.0415,0.0377,0.036,0.0312,0.0272,0.0247,0.0206,0.02,0.0164,0.0141,0.0095,0.0084,0.0207,0.0207,0.0207,0.0099,0,0.0346,0.0397,0.0399,0.0459,0.0491,0.0482,0.0518,0.0529,0.0524,0.053,0.049,0.0489,0.0433,0.0421,0.0378,0.0278,0.0238,0.0279,0.0099,0.0093,0.0051,0.0078,0.0206,0.0094,0.0093,0.0092,0.0092,0,0.0388,0.0419,0.0491,0.0546,0.056,0.0591,0.0645,0.0672,0.0674,0.0666,0.0652,0.0604,0.0562,0.0497,0.0361,0.0385,0.0279,0.0195,0.0188,0.0102,0.0038,0.0037,0.0081,0.0082,0.0083,0.0083,0.0084,0,0.0432,0.0486,0.0554,0.057,0.0623,0.0661,0.0692,0.0716,0.0749,0.0749,0.0752,0.0694,0.065,0.0528,0.0354,0.0354,0.0179,0.0154,0.0018,0.0013,0.0036,0.0033,0.006,0.006,0.0061,0.0061,0.0061,0,0.0475,0.0523,0.0578,0.0614,0.0691,0.0718,0.0794,0.0809,0.0839,0.0874,0.0824,0.0808,0.065,0.0529,0.0379,0.0177,0.0195,0.0034,-0.0015,0.0086,0.009,0.0032,0.003,0.0057,0.0058,0.0058,0.0059,0,0.05,0.0539,0.0615,0.0688,0.0714,0.0771,0.0849,0.0896,0.092,0.0958,0.096,0.0882,0.0721,0.0546,0.0325,0.0201,0.002,-0.0059,0.0063,0.0021,-0.0119,-0.0114,-0.0202,-0.0204,-0.0206,-0.0208,-0.021,0,0.0511,0.0558,0.0661,0.0705,0.0737,0.0819,0.0875,0.093,0.0974,0.099,0.1001,0.0877,0.0793,0.0465,0.0271,-0.001,-0.0058,-0.0144,-0.0121,-0.0106,-0.0145,-0.0136,-0.0128,-0.0213,-0.0213,-0.0214,-0.0215,0,0.0526,0.0572,0.0633,0.0728,0.0798,0.0879,0.0956,0.0992,0.1053,0.1071,0.1022,0.0873,0.0683,0.0446,0.0218,0.0017,-0.0077,-0.0166,-0.0163,-0.0142,-0.0121,-0.0155,-0.0145,-0.0222,-0.0221,-0.022,-0.022,0,0.0533,0.057,0.0659,0.0737,0.083,0.091,0.0955,0.0999,0.1047,0.1066,0.1034,0.0861,0.0763,0.0456,0.0248,0.0044,-0.0003,-0.0057,-0.006,-0.0055,0.0015,0.0066,-0.0015,0,0,0,0,0,0.0531,0.0574,0.0651,0.075,0.0845,0.0901,0.0997,0.1038,0.1089,0.1059,0.1055,0.0883,0.0585,0.0462,0.0249,0.0191,-0.0051,-0.0066,-0.0118,-0.0262,-0.0253,-0.0202,0,0,0,0,0,0,0.053,0.0601,0.0644,0.0747,0.0813,0.0921,0.0987,0.1023,0.1009,0.1028,0.0872,0.0821,0.0528,0.0701,0.0241,0.0181,0.0117,-0.0196,-0.0201,-0.0267,-0.0259,-0.0252,-0.0196,0,0,0,0,0]}]]